Regional Weather Roundup
Issued by NWS Albany, NY

Home | Current Version | Previous Version | Text Only | Print | Product List | Glossary On
Versions: 1 2 3 4 5 6 7 8 9 10 11 12 13 14 15 16 17 18 19 20 21 22 23 24 25 26 27 28 29 30 31 32 33 34 35 36 37 38 39 40 41 42 43 44 45 46 47 48 49 50
000
ASUS41 KALY 201710
RWRALY

NEW YORK STATE HOURLY WEATHER ROUNDUP
NATIONAL WEATHER SERVICE ALBANY NY
1200 PM EST MON NOV 20 2017

NOTE: "FAIR" INDICATES FEW OR NO CLOUDS BELOW 12,000 FEET WITH NO
SIGNIFICANT WEATHER AND/OR NO OBSTRUCTIONS TO VISIBILITY.

NYZ032-033-038>043-046>054-057>066-NYZ062>081-082-084-201800-
EAST


CITY           SKY/WX    TMP DP  RH WIND       PRES   REMARKS
ALBANY         PTSUNNY   36  23  59 VRB3      29.95F
GLENS FALLS    CLOUDY    34  20  56 SW14G20   29.91F WCI  25
POUGHKEEPSIE   MOSUNNY   40  20  44 W13G23    29.98F WCI  32
MONTGOMERY     PTSUNNY   43  22  43 W18G28    29.99S
WHITE PLAINS   PTSUNNY   40  23  50 NW18G25   29.99F WCI  31
ISLIP          PTSUNNY   44  23  43 W21G28    30.01S
NEW YORK CITY  MOSUNNY   45  22  40 W20G26    30.02F
CENTRAL PARK   PTSUNNY   45  22  40 W10G22    30.04F
$$

NYZ005>009-017-018-044>046-055-056-201800-
CENTRAL


CITY           SKY/WX    TMP DP  RH WIND       PRES   REMARKS
FULTON         CLOUDY    34  23  64 W17G25    29.94F WCI  23
SYRACUSE       FLURRIES  33  24  69 W20G28    29.96S WCI  21
ROME           MOSUNNY   34  23  64 W14G24    29.94F WCI  25
ELMIRA         CLOUDY    37  27  67 W13       29.98F WCI  29
BINGHAMTON     CLOUDY    31  23  72 W9        29.93F WCI  23
MONTICELLO     CLOUDY    34  22  61 W13G24    29.96F WCI  25
$$

NYZ026>034-041>043-087-201800-
NORTH


CITY           SKY/WX    TMP DP  RH WIND       PRES   REMARKS
WATERTOWN      CLOUDY    37  27  67 W21       29.89S WCI  26
FORT DRUM      NOT AVBL
OGDENSBURG     LGT SNOW  27  23  85 CALM      29.91F
MASSENA        LGT SNOW  22  19  89 SW8       29.93S FOG     WCI  12
SARANAC LAKE   SNOW      20  18  92 SW6       29.78S VSB 1/2 WCI  12
PLATTSBURGH    FLURRIES  28  15  58 W8        29.88S WCI  20
$$

NYZ001>004-010>016-019>021-085-201800-
WEST


CITY           SKY/WX    TMP DP  RH WIND       PRES   REMARKS
NIAGARA FALLS  CLOUDY    40  27  59 W13G23    29.96F WCI  32
BUFFALO        FLURRIES  38  29  70 SW10      29.96F WCI  31
DUNKIRK        CLOUDY    37  28  70 SW20G26   30.01S WCI  27
JAMESTOWN      CLOUDY    31  25  78 SW16      30.00F WCI  20
WELLSVILLE     MOSUNNY   33  25  72 W13G21    29.95F WCI  24
ROCHESTER      CLOUDY    36  25  64 W14       29.97F WCI  27
PENN YAN       CLOUDY    35  25  66 W10G20    29.96F WCI  27
$$

             KEY
       WCI = WIND CHILL INDEX
       VSB = VISIBILITY
       HX  = HEAT INDEX
$$



USA.gov is the U.S. government's official web portal to all federal, state and local government web resources and services.